Regional Weather Roundup
Issued by NWS

Home | Current Version | Previous Version | Graphics & Text | Print | Product List | Glossary On
Versions: 1 2 3 4 5 6 7 8 9 10 11 12 13 14 15 16 17 18 19 20 21 22 23 24 25 26 27 28 29 30 31 32 33 34 35 36 37 38 39 40 41 42 43 44 45 46 47 48 49 50
000
ASUS43 KBIS 070110
RWRND

NORTH DAKOTA REGIONAL WEATHER ROUNDUP
NATIONAL WEATHER SERVICE BISMARCK ND
800 PM CDT MON JUL 06 2015

NOTE: "FAIR" INDICATES FEW OR NO CLOUDS BELOW 12,000 FEET WITH NO
SIGNIFICANT WEATHER AND/OR OBSTRUCTIONS TO VISIBILITY.


NDZ001>003-009>011-017-070200-
NORTHWEST NORTH DAKOTA

CITY           SKY/WX    TMP DP  RH WIND       PRES   REMARKS
WILLISTON      SUNNY     70  47  43 NE9       30.16F
MINOT          SUNNY     65  45  48 N6        30.15F
MINOT AFB      SUNNY     70  43  37 N6        30.15S
$$

NDZ018>021-031>035-040>046-070200-
SOUTHWEST NORTH DAKOTA

CITY           SKY/WX    TMP DP  RH WIND       PRES   REMARKS
BISMARCK       PTSUNNY   66  52  60 N10       30.16R HAZE
DICKINSON      SUNNY     66  52  60 NE9       30.15F HAZE
GARRISON         N/A     66  48  52 NE7       30.16S
HETTINGER ARPT SUNNY     69  51  52 N5        30.16F
$$

NDZ004>008-012>016-024-026-027-054-070200-
NORTHEAST NORTH DAKOTA

CITY           SKY/WX    TMP DP  RH WIND       PRES   REMARKS
GRAND FORKS    MOSUNNY   62  45  53 N13       30.12S
GRND FRKS AFB  MOSUNNY   62  47  57 NE13      30.13S
DEVILS LAKE    SUNNY     64  45  48 N12       30.13S
$$

NDZ022-023-025-028>030-036>039-047>053-070200-
SOUTHEAST NORTH DAKOTA

CITY           SKY/WX    TMP DP  RH WIND       PRES   REMARKS
FARGO          MOSUNNY   64  48  56 N15G23    30.10S
JAMESTOWN      MOSUNNY   64  48  56 N13       30.12F
$$




USA.gov is the U.S. government's official web portal to all federal, state and local government web resources and services.